Content
SEND FEEDBACK

Daily
Averages
Monthly
Summary
Romania

TIMISOARA, ROMANIA


Home > Europe > Romania
Elevation: 335 feet     Latitude: 45 45N     Longitude: 021 14E

WEATHER
 
SELECT A DAY
Number of Records: 276,814;   Date Range: 7/1/96 - 9/16/14
 
SHARE

PRINT THIS DATA

[ ← Previous Day ]
WEATHER ALMANAC - JANUARY 31, 2013
[ Next Day → ]
[ °C ]   °F
Weather ElementAverageHighLow
Temperature43.1 °F51.8 °F (1:30 pm)33.8 °F (11:00 pm)
Dewpoint37.4 °F41 °F (8:00 am)32 °F (7:00 pm)
Humidity81.5 %100 % (1:30 am)54 % (3:30 pm)
Barometer29.96 in30.01 in (11:00 am)29.86 in (2:00 am)
Wind Speed10.7 mph27.6 mph (1:00 pm)
Weather ElementAverage
Visibility5.4 mi
Wind DirectionSW (223.4 °)

Weather ElementTotal
Precipitation---
Heating Degree Days22.2 (Base 65)
Averaged from 47 records on January 31, 2013
WEATHER CONDITIONS BREAKOUT
WIND DIRECTION BREAKOUT
WEATHER BY HOUR - JANUARY 31, 2013
[ °C ]   °F
Local TimeTemperatureDewpointHumidityBarometerVisibilityWind DirectionWind SpeedGust SpeedPrecipitationEventsConditions
12:30 AM41.0 °F39.2 °F93 %29.92 in5.0 miESE (120°)5.8 mph
1:00 AM41.0 °F39.2 °F93 %29.89 in5.0 miSE (130°)5.8 mph
1:30 AM39.2 °F39.2 °F100 %29.89 in3.7 miESE (110°)6.9 mph
2:00 AM39.2 °F39.2 °F100 %29.86 in3.1 miSE (130°)5.8 mphMist
2:30 AM39.2 °F39.2 °F100 %29.86 in3.1 miESE (120°)5.8 mphMist
3:00 AM39.2 °F39.2 °F100 %29.86 in3.7 miESE (110°)5.8 mph
3:30 AM41.0 °F39.2 °F93 %29.86 in4.3 miEast (100°)5.8 mph
4:00 AM41.0 °F39.2 °F93 %29.86 in3.7 miNE (40°)4.6 mphRainLight Rain
4:30 AM41.0 °F39.2 °F93 %29.86 in5.0 miVariable1.2 mphRainLight Rain
5:00 AM41.0 °F39.2 °F93 %29.89 in5.0 miNW (320°)1.2 mphRainLight Rain
5:30 AM41.0 °F39.2 °F93 %29.92 in4.3 miWSW (250°)5.8 mphRainLight Rain
6:00 AM41.0 °F39.2 °F93 %29.89 in5.6 miSW (230°)3.5 mphRainLight Rain
6:30 AM41.0 °F39.2 °F93 %29.89 in6.2 miSSW (200°)6.9 mphRainLight Rain
7:00 AM41.0 °F39.2 °F93 %29.92 in6.2 miSW (220°)6.9 mphRainLight Rain
7:30 AM41.0 °F39.2 °F93 %29.92 in6.2 miWSW (250°)9.2 mphRainLight Rain
8:00 AM41.0 °F41.0 °F100 %29.92 in6.2 miWSW (240°)6.9 mphMostly Cloudy
8:30 AM42.8 °F41.0 °F93 %29.92 in6.2 miWest (260°)5.8 mphScattered Clouds
9:00 AM42.8 °F41.0 °F93 %29.95 in6.2 miWest (260°)10.4 mphPartly Cloudy
9:30 AM44.6 °F39.2 °F81 %29.98 in6.2 miWest (270°)15.0 mphPartly Cloudy
10:00 AM42.8 °F41.0 °F93 %29.98 inWest (270°)15.0 mphClear
10:30 AM46.4 °F41.0 °F81 %29.98 inWest (280°)16.1 mphClear
11:00 AM46.4 °F41.0 °F81 %30.01 inWNW (300°)19.6 mphClear
11:30 AM48.2 °F41.0 °F76 %30.01 inNW (310°)16.1 mphClear
12:00 PM50.0 °F41.0 °F71 %30.01 inNW (320°)19.6 mphClear
12:30 PM50.0 °F41.0 °F71 %30.01 in6.2 miNW (320°)19.6 mphPartly Cloudy
1:00 PM50.0 °F39.2 °F66 %30.01 in6.2 miNW (310°)27.6 mphPartly Cloudy
1:30 PM51.8 °F37.4 °F58 %30.01 in6.2 miNW (310°)27.6 mphPartly Cloudy
2:00 PM51.8 °F37.4 °F58 %30.01 in6.2 miNW (310°)27.6 mphScattered Clouds
2:30 PM51.8 °F37.4 °F58 %30.01 in6.2 miNW (310°)23.0 mphScattered Clouds
3:00 PM50.0 °F37.4 °F62 %30.01 in6.2 miNW (310°)20.7 mphPartly Cloudy
3:30 PM51.8 °F35.6 °F54 %30.01 in6.2 miNW (310°)20.7 mphPartly Cloudy
4:00 PM50.0 °F37.4 °F62 %30.01 in6.2 miNW (310°)18.4 mphPartly Cloudy
4:30 PM50.0 °F35.6 °F58 %30.01 in6.2 miWNW (300°)13.8 mphPartly Cloudy
5:00 PM48.2 °F37.4 °F66 %30.01 inWNW (300°)11.5 mphClear
5:30 PM44.6 °F35.6 °F71 %30.01 inWNW (290°)9.2 mphClear
6:00 PM41.0 °F33.8 °F76 %30.01 inWest (280°)10.4 mphClear
6:30 PM41.0 °F33.8 °F76 %30.01 inWest (280°)8.1 mphClear
7:00 PM39.2 °F32.0 °F75 %30.01 inWest (260°)9.2 mphClear
7:30 PM41.0 °F32.0 °F70 %30.01 inWSW (250°)8.1 mphClear
8:00 PM41.0 °F32.0 °F70 %30.01 inWSW (240°)8.1 mphClear
8:30 PM41.0 °F32.0 °F70 %30.01 inSSW (210°)4.6 mphClear
9:00 PM39.2 °F32.0 °F75 %30.01 inVariable2.3 mphClear
9:30 PM37.4 °F33.8 °F87 %29.98 inSouth (180°)5.8 mphClear
10:00 PM37.4 °F32.0 °F81 %29.98 inSouth (180°)4.6 mphClear
10:30 PM35.6 °F32.0 °F87 %29.95 inSSE (150°)6.9 mphClear
11:00 PM33.8 °F32.0 °F93 %29.95 inESE (120°)5.8 mphClear
11:30 PM35.6 °F33.8 °F93 %29.95 inSE (130°)4.6 mphClear
Hourly data recorded from LRTR, located miles away from Timisoara, Romania







STORIES FROM OUR PARTNERS